EN

Hourly Weather La Victoria

Today, 25 July, Sunday

Time Temperature Precipitation Wind Pressure Humidity
00:00 +19°C° 0 mm 0 mps 690 mmHg 96%
01:00 +19°C° 0 mm 0 mps 690 mmHg 96%
02:00 +19°C° 0 mm 0 mps 689 mmHg 96%
03:00 +19°C° 0 mm 0 mps 689 mmHg 96%
04:00 +19°C° 0 mm 0 mps 689 mmHg 96%
05:00 +18°C° 0 mm 0 mps 689 mmHg 96%
06:00 +19°C° 0.1 mm 0 mps 689 mmHg 95%
07:00 +20°C° 0.1 mm 0 mps 690 mmHg 94%
08:00 +20°C° 0 mm 0 mps 690 mmHg 93%
09:00 +23°C° 0 mm 1 mps 690 mmHg 88%
10:00 +24°C° 0 mm 1 mps 691 mmHg 83%
11:00 +26°C° 0 mm 1 mps 691 mmHg 77%
12:00 +25°C° 0.6 mm 1 mps 691 mmHg 79%
13:00 +25°C° 0.6 mm 1 mps 690 mmHg 80%
14:00 +25°C° 0.6 mm 1 mps 690 mmHg 82%
15:00 +24°C° 0.5 mm 1 mps 690 mmHg 86%
16:00 +24°C° 0.5 mm 1 mps 689 mmHg 91%
17:00 +21°C° 0.5 mm 0 mps 689 mmHg 95%
18:00 +22°C° 0 mm 1 mps 689 mmHg 95%
19:00 +22°C° 0 mm 1 mps 689 mmHg 95%
20:00 +22°C° 0 mm 1 mps 689 mmHg 95%
21:00 +21°C° 0 mm 1 mps 690 mmHg 94%
22:00 +21°C° 0 mm 1 mps 690 mmHg 93%
23:00 +21°C° 0 mm 1 mps 690 mmHg 92%

Tomorrow, 26 July, Monday

Time Temperature Precipitation Wind Pressure Humidity
00:00 +21°C° 0 mm 1 mps 690 mmHg 92%
01:00 +21°C° 0 mm 1 mps 690 mmHg 91%
02:00 +20°C° 0 mm 1 mps 689 mmHg 90%
03:00 +20°C° 0.1 mm 1 mps 689 mmHg 91%
04:00 +20°C° 0.1 mm 1 mps 689 mmHg 92%
05:00 +20°C° 0.1 mm 1 mps 689 mmHg 93%
06:00 +20°C° 0.6 mm 1 mps 690 mmHg 94%
07:00 +21°C° 0.6 mm 1 mps 690 mmHg 94%
08:00 +21°C° 0.6 mm 1 mps 691 mmHg 95%
09:00 +23°C° 0.4 mm 1 mps 691 mmHg 88%
10:00 +24°C° 0.4 mm 1 mps 691 mmHg 80%
11:00 +26°C° 0.4 mm 1 mps 692 mmHg 73%
12:00 +26°C° 0.4 mm 1 mps 691 mmHg 72%
13:00 +27°C° 0.4 mm 2 mps 691 mmHg 71%
14:00 +27°C° 0.4 mm 2 mps 690 mmHg 70%
15:00 +27°C° 0.6 mm 2 mps 690 mmHg 72%
16:00 +26°C° 0.6 mm 1 mps 690 mmHg 75%
17:00 +26°C° 0.6 mm 1 mps 689 mmHg 77%
18:00 +25°C° 0.8 mm 1 mps 689 mmHg 83%
19:00 +23°C° 0.8 mm 1 mps 690 mmHg 89%
20:00 +22°C° 0.8 mm 1 mps 690 mmHg 94%
21:00 +21°C° 0.2 mm 1 mps 690 mmHg 94%
22:00 +21°C° 0.2 mm 1 mps 691 mmHg 95%
23:00 +21°C° 0.2 mm 1 mps 691 mmHg 95%

Day after tomorrow, 27 July, Tuesday

Time Temperature Precipitation Wind Pressure Humidity
00:00 +21°C° 0 mm 1 mps 690 mmHg 95%
01:00 +21°C° 0 mm 1 mps 690 mmHg 94%
02:00 +21°C° 0 mm 1 mps 689 mmHg 94%
03:00 +20°C° 0 mm 1 mps 689 mmHg 94%
04:00 +20°C° 0 mm 1 mps 689 mmHg 94%
05:00 +20°C° 0 mm 1 mps 689 mmHg 94%
06:00 +21°C° 0 mm 1 mps 690 mmHg 92%
07:00 +22°C° 0 mm 1 mps 690 mmHg 89%
08:00 +21°C° 0 mm 0 mps 691 mmHg 87%
09:00 +25°C° 0 mm 1 mps 691 mmHg 78%
10:00 +27°C° 0 mm 1 mps 691 mmHg 68%
11:00 +29°C° 0 mm 2 mps 692 mmHg 59%
12:00 +29°C° 0.1 mm 2 mps 691 mmHg 56%
13:00 +30°C° 0.1 mm 2 mps 691 mmHg 53%
14:00 +30°C° 0.1 mm 2 mps 690 mmHg 50%
15:00 +28°C° 0.4 mm 2 mps 690 mmHg 61%
16:00 +26°C° 0.4 mm 1 mps 689 mmHg 71%
17:00 +25°C° 0.4 mm 1 mps 689 mmHg 81%
18:00 +24°C° 0.8 mm 1 mps 689 mmHg 85%
19:00 +23°C° 0.8 mm 1 mps 689 mmHg 89%
20:00 +22°C° 0.8 mm 1 mps 690 mmHg 93%
21:00 +22°C° 0.2 mm 1 mps 690 mmHg 93%
22:00 +21°C° 0.2 mm 1 mps 690 mmHg 93%
23:00 +21°C° 0.2 mm 1 mps 690 mmHg 93%

28 July, Wednesday

Time Temperature Precipitation Wind Pressure Humidity
00:00 +21°C° 0 mm 1 mps 690 mmHg 93%
01:00 +21°C° 0 mm 1 mps 689 mmHg 94%
02:00 +20°C° 0 mm 1 mps 689 mmHg 94%
03:00 +20°C° 0 mm 1 mps 689 mmHg 94%
04:00 +20°C° 0 mm 1 mps 689 mmHg 94%
05:00 +20°C° 0 mm 1 mps 689 mmHg 94%
06:00 +21°C° 0 mm 1 mps 690 mmHg 92%
07:00 +22°C° 0 mm 1 mps 690 mmHg 90%
08:00 +21°C° 0 mm 0 mps 690 mmHg 88%
09:00 +24°C° 0.1 mm 1 mps 691 mmHg 80%
10:00 +26°C° 0.1 mm 1 mps 691 mmHg 71%
11:00 +28°C° 0.1 mm 2 mps 691 mmHg 63%
12:00 +28°C° 0.4 mm 2 mps 691 mmHg 62%
13:00 +28°C° 0.4 mm 2 mps 690 mmHg 61%
14:00 +28°C° 0.4 mm 2 mps 690 mmHg 61%
15:00 +27°C° 0.8 mm 2 mps 690 mmHg 67%
16:00 +27°C° 0.8 mm 2 mps 689 mmHg 73%
17:00 +26°C° 0.8 mm 1 mps 689 mmHg 79%
18:00 +24°C° 1 mm 1 mps 689 mmHg 84%
19:00 +23°C° 1 mm 1 mps 689 mmHg 89%
20:00 +22°C° 1 mm 1 mps 690 mmHg 94%
21:00 +21°C° 1.3 mm 1 mps 690 mmHg 95%
22:00 +21°C° 1.3 mm 1 mps 690 mmHg 96%
23:00 +21°C° 1.3 mm 1 mps 691 mmHg 97%

29 July, Thursday

Time Temperature Precipitation Wind Pressure Humidity
00:00 +21°C° 0.6 mm 1 mps 690 mmHg 97%
01:00 +21°C° 0.6 mm 1 mps 690 mmHg 97%
02:00 +19°C° 0.6 mm 0 mps 690 mmHg 98%
03:00 +21°C° 0.7 mm 1 mps 690 mmHg 98%
04:00 +21°C° 0.7 mm 1 mps 690 mmHg 98%
05:00 +20°C° 0.7 mm 1 mps 690 mmHg 98%
06:00 +21°C° 2.1 mm 1 mps 691 mmHg 98%
07:00 +21°C° 2.1 mm 1 mps 691 mmHg 98%
08:00 +21°C° 2.1 mm 1 mps 692 mmHg 98%
09:00 +21°C° 0.3 mm 1 mps 692 mmHg 96%
10:00 +21°C° 0.3 mm 1 mps 692 mmHg 94%
11:00 +22°C° 0.3 mm 1 mps 692 mmHg 92%
12:00 +22°C° 0.1 mm 1 mps 692 mmHg 89%
13:00 +23°C° 0.1 mm 1 mps 692 mmHg 86%
14:00 +24°C° 0.1 mm 1 mps 691 mmHg 82%
15:00 +23°C° 0.1 mm 1 mps 691 mmHg 84%
16:00 +23°C° 0.1 mm 1 mps 691 mmHg 87%
17:00 +23°C° 0.1 mm 1 mps 690 mmHg 89%
18:00 +22°C° 0 mm 1 mps 690 mmHg 90%
19:00 +22°C° 0 mm 1 mps 691 mmHg 92%
20:00 +21°C° 0 mm 1 mps 691 mmHg 94%
21:00 +21°C° 0.2 mm 1 mps 691 mmHg 94%
22:00 +21°C° 0.2 mm 1 mps 692 mmHg 94%
23:00 +20°C° 0.2 mm 2 mps 692 mmHg 94%

30 July, Friday

Time Temperature Precipitation Wind Pressure Humidity
00:00 +21°C° 0.3 mm 1 mps 692 mmHg 94%
01:00 +21°C° 0.3 mm 1 mps 691 mmHg 94%
02:00 +20°C° 0.3 mm 1 mps 691 mmHg 93%
03:00 +20°C° 0 mm 1 mps 691 mmHg 93%
04:00 +20°C° 0 mm 1 mps 691 mmHg 94%
05:00 +20°C° 0 mm 1 mps 691 mmHg 94%
06:00 +21°C° 0 mm 1 mps 691 mmHg 91%
07:00 +22°C° 0 mm 1 mps 691 mmHg 89%
08:00 +23°C° 0 mm 1 mps 692 mmHg 86%
09:00 +24°C° 0 mm 1 mps 692 mmHg 78%
10:00 +26°C° 0 mm 1 mps 692 mmHg 69%
11:00 +28°C° 0 mm 2 mps 693 mmHg 61%
12:00 +28°C° 0 mm 2 mps 692 mmHg 57%
13:00 +29°C° 0 mm 2 mps 692 mmHg 53%
14:00 +30°C° 0 mm 2 mps 691 mmHg 49%
15:00 +29°C° 0.1 mm 2 mps 691 mmHg 54%
16:00 +28°C° 0.1 mm 2 mps 690 mmHg 59%
17:00 +27°C° 0.1 mm 2 mps 690 mmHg 64%
18:00 +25°C° 0.1 mm 2 mps 690 mmHg 72%
19:00 +24°C° 0.1 mm 1 mps 690 mmHg 80%
20:00 +22°C° 0.1 mm 1 mps 690 mmHg 88%
21:00 +21°C° 0 mm 1 mps 691 mmHg 89%
22:00 +21°C° 0 mm 1 mps 691 mmHg 89%
23:00 +20°C° 0 mm 1 mps 692 mmHg 90%
Show more